owner,sensor,date,latitude,longitude,vertical_datum,wind_speed,wind_to_direction,wind_speed_of_gust,qcFlag 
WAVCIS,ioos:station:WAVCIS:CSI09:1,2011-10-01T00:00:00Z,29.1015,-89.9782,0.0,11.31,1.0,,'11111222,11111222,99999999' 
WAVCIS,ioos:station:WAVCIS:CSI09:1,2011-10-01T01:00:00Z,29.1015,-89.9782,0.0,10.88,2.0,,'11111222,11111222,99999999' 
WAVCIS,ioos:station:WAVCIS:CSI09:1,2011-10-01T02:00:00Z,29.1015,-89.9782,0.0,11.93,1.0,,'11111222,11111222,99999999' 
WAVCIS,ioos:station:WAVCIS:CSI09:1,2011-10-01T03:00:00Z,29.1015,-89.9782,0.0,12.45,11.0,,'11111222,11111222,99999999' 
WAVCIS,ioos:station:WAVCIS:CSI09:1,2011-10-01T04:00:00Z,29.1015,-89.9782,0.0,11.38,14.0,,'11111222,11111222,99999999' 
WAVCIS,ioos:station:WAVCIS:CSI09:1,2011-10-01T05:00:00Z,29.1015,-89.9782,0.0,13.42,22.0,,'11111222,11111222,99999999' 
WAVCIS,ioos:station:WAVCIS:CSI09:1,2011-10-01T06:00:00Z,29.1015,-89.9782,0.0,12.46,22.0,,'11111222,11111222,99999999' 
WAVCIS,ioos:station:WAVCIS:CSI09:1,2011-10-01T07:00:00Z,29.1015,-89.9782,0.0,12.43,28.0,,'11111222,11111222,99999999' 
WAVCIS,ioos:station:WAVCIS:CSI09:1,2011-10-01T08:00:00Z,29.1015,-89.9782,0.0,12.5,32.0,,'11111222,11111222,99999999' 
WAVCIS,ioos:station:WAVCIS:CSI09:1,2011-10-01T09:00:00Z,29.1015,-89.9782,0.0,12.27,24.0,,'11111222,11111222,99999999' 
WAVCIS,ioos:station:WAVCIS:CSI09:1,2011-10-01T10:00:00Z,29.1015,-89.9782,0.0,10.22,29.0,,'11111222,11111222,99999999' 
WAVCIS,ioos:station:WAVCIS:CSI09:1,2011-10-01T11:00:00Z,29.1015,-89.9782,0.0,10.82,29.0,,'11111222,11111222,99999999' 
WAVCIS,ioos:station:WAVCIS:CSI09:1,2011-10-01T12:00:00Z,29.1015,-89.9782,0.0,11.5,24.0,,'11111222,11111222,99999999' 
WAVCIS,ioos:station:WAVCIS:CSI09:1,2011-10-01T13:00:00Z,29.1015,-89.9782,0.0,10.52,36.0,,'11111222,11111222,99999999' 
WAVCIS,ioos:station:WAVCIS:CSI09:1,2011-10-01T14:00:00Z,29.1015,-89.9782,0.0,11.57,38.0,,'11111222,11111222,99999999' 
WAVCIS,ioos:station:WAVCIS:CSI09:1,2011-10-01T15:00:00Z,29.1015,-89.9782,0.0,11.59,38.0,,'11111222,11111222,99999999' 
WAVCIS,ioos:station:WAVCIS:CSI09:1,2011-10-01T16:00:00Z,29.1015,-89.9782,0.0,10.71,43.0,,'11111222,11111222,99999999' 
WAVCIS,ioos:station:WAVCIS:CSI09:1,2011-10-01T17:00:00Z,29.1015,-89.9782,0.0,9.35,47.0,,'11111222,11111222,99999999' 
WAVCIS,ioos:station:WAVCIS:CSI09:1,2011-10-01T18:00:00Z,29.1015,-89.9782,0.0,8.21,48.0,,'11111222,11111222,99999999' 
WAVCIS,ioos:station:WAVCIS:CSI09:1,2011-10-01T19:00:00Z,29.1015,-89.9782,0.0,7.66,47.0,,'11111222,11111222,99999999' 
WAVCIS,ioos:station:WAVCIS:CSI09:1,2011-10-01T20:00:00Z,29.1015,-89.9782,0.0,7.04,50.0,,'11111222,11111222,99999999' 
WAVCIS,ioos:station:WAVCIS:CSI09:1,2011-10-01T21:00:00Z,29.1015,-89.9782,0.0,6.081,51.0,,'11111222,11111222,99999999' 
WAVCIS,ioos:station:WAVCIS:CSI09:1,2011-10-01T22:00:00Z,29.1015,-89.9782,0.0,5.174,37.0,,'11111222,11111222,99999999' 
WAVCIS,ioos:station:WAVCIS:CSI09:1,2011-10-01T23:00:00Z,29.1015,-89.9782,0.0,6.259,16.0,,'11111222,11111222,99999999' 
WAVCIS,ioos:station:WAVCIS:CSI09:1,2011-10-02T00:00:00Z,29.1015,-89.9782,0.0,4.936,354.0,,'11111222,11111222,99999999' 
WAVCIS,ioos:station:WAVCIS:CSI09:1,2011-10-02T01:00:00Z,29.1015,-89.9782,0.0,6.43,2.0,,'11111222,11111222,99999999' 
WAVCIS,ioos:station:WAVCIS:CSI09:1,2011-10-02T02:00:00Z,29.1015,-89.9782,0.0,6.191,352.0,,'11111222,11111222,99999999' 
WAVCIS,ioos:station:WAVCIS:CSI09:1,2011-10-02T03:00:00Z,29.1015,-89.9782,0.0,9.21,17.0,,'11111222,11111222,99999999' 
WAVCIS,ioos:station:WAVCIS:CSI09:1,2011-10-02T04:00:00Z,29.1015,-89.9782,0.0,8.82,12.0,,'11111222,11111222,99999999' 
WAVCIS,ioos:station:WAVCIS:CSI09:1,2011-10-02T05:00:00Z,29.1015,-89.9782,0.0,10.13,25.0,,'11111222,11111222,99999999' 
WAVCIS,ioos:station:WAVCIS:CSI09:1,2011-10-02T06:00:00Z,29.1015,-89.9782,0.0,10.21,38.0,,'11111222,11111222,99999999' 
WAVCIS,ioos:station:WAVCIS:CSI09:1,2011-10-02T07:00:00Z,29.1015,-89.9782,0.0,10.53,43.0,,'11111222,11111222,99999999' 
WAVCIS,ioos:station:WAVCIS:CSI09:1,2011-10-02T08:00:00Z,29.1015,-89.9782,0.0,10.55,41.0,,'11111222,11111222,99999999' 
WAVCIS,ioos:station:WAVCIS:CSI09:1,2011-10-02T09:00:00Z,29.1015,-89.9782,0.0,10.46,32.0,,'11111222,11111222,99999999' 
WAVCIS,ioos:station:WAVCIS:CSI09:1,2011-10-02T10:00:00Z,29.1015,-89.9782,0.0,9.45,43.0,,'11111222,11111222,99999999' 
WAVCIS,ioos:station:WAVCIS:CSI09:1,2011-10-02T11:00:00Z,29.1015,-89.9782,0.0,9.61,38.0,,'11111222,11111222,99999999' 
WAVCIS,ioos:station:WAVCIS:CSI09:1,2011-10-02T12:00:00Z,29.1015,-89.9782,0.0,9.0,40.0,,'11111222,11111222,99999999' 
WAVCIS,ioos:station:WAVCIS:CSI09:1,2011-10-02T13:00:00Z,29.1015,-89.9782,0.0,8.68,45.0,,'11111222,11111222,99999999' 
WAVCIS,ioos:station:WAVCIS:CSI09:1,2011-10-02T14:00:00Z,29.1015,-89.9782,0.0,8.17,42.0,,'11111222,11111222,99999999' 
WAVCIS,ioos:station:WAVCIS:CSI09:1,2011-10-02T15:00:00Z,29.1015,-89.9782,0.0,7.65,41.0,,'11111222,11111222,99999999' 
WAVCIS,ioos:station:WAVCIS:CSI09:1,2011-10-02T16:00:00Z,29.1015,-89.9782,0.0,6.93,46.0,,'11111222,11111222,99999999' 
WAVCIS,ioos:station:WAVCIS:CSI09:1,2011-10-02T17:00:00Z,29.1015,-89.9782,0.0,7.39,42.0,,'11111222,11111222,99999999' 
WAVCIS,ioos:station:WAVCIS:CSI09:1,2011-10-02T18:00:00Z,29.1015,-89.9782,0.0,7.3,37.0,,'11111222,11111222,99999999' 
WAVCIS,ioos:station:WAVCIS:CSI09:1,2011-10-02T19:00:00Z,29.1015,-89.9782,0.0,6.619,32.0,,'11111222,11111222,99999999' 
WAVCIS,ioos:station:WAVCIS:CSI09:1,2011-10-02T20:00:00Z,29.1015,-89.9782,0.0,5.752,43.0,,'11111222,11111222,99999999' 
WAVCIS,ioos:station:WAVCIS:CSI09:1,2011-10-02T21:00:00Z,29.1015,-89.9782,0.0,5.549,41.0,,'11111222,11111222,99999999' 
WAVCIS,ioos:station:WAVCIS:CSI09:1,2011-10-02T22:00:00Z,29.1015,-89.9782,0.0,5.966,33.0,,'11111222,11111222,99999999' 
WAVCIS,ioos:station:WAVCIS:CSI09:1,2011-10-02T23:00:00Z,29.1015,-89.9782,0.0,5.35,39.0,,'11111222,11111222,99999999' 
WAVCIS,ioos:station:WAVCIS:CSI09:1,2011-10-03T00:00:00Z,29.1015,-89.9782,0.0,5.013,24.0,,'11111222,11111222,99999999' 
WAVCIS,ioos:station:WAVCIS:CSI09:1,2011-10-03T01:00:00Z,29.1015,-89.9782,0.0,5.486,11.0,,'11111222,11111222,99999999' 
WAVCIS,ioos:station:WAVCIS:CSI09:1,2011-10-03T02:00:00Z,29.1015,-89.9782,0.0,4.953,350.0,,'11111222,11111222,99999999' 
WAVCIS,ioos:station:WAVCIS:CSI09:1,2011-10-03T03:00:00Z,29.1015,-89.9782,0.0,5.181,4.0,,'11111222,11111222,99999999' 
WAVCIS,ioos:station:WAVCIS:CSI09:1,2011-10-03T04:00:00Z,29.1015,-89.9782,0.0,5.167,6.0,,'11111222,11111222,99999999' 
WAVCIS,ioos:station:WAVCIS:CSI09:1,2011-10-03T05:00:00Z,29.1015,-89.9782,0.0,5.863,4.0,,'11111222,11111222,99999999' 
WAVCIS,ioos:station:WAVCIS:CSI09:1,2011-10-03T06:00:00Z,29.1015,-89.9782,0.0,7.16,25.0,,'11111222,11111222,99999999' 
WAVCIS,ioos:station:WAVCIS:CSI09:1,2011-10-03T07:00:00Z,29.1015,-89.9782,0.0,7.81,29.0,,'11111222,11111222,99999999' 
WAVCIS,ioos:station:WAVCIS:CSI09:1,2011-10-03T08:00:00Z,29.1015,-89.9782,0.0,7.11,37.0,,'11111222,11111222,99999999' 
WAVCIS,ioos:station:WAVCIS:CSI09:1,2011-10-03T09:00:00Z,29.1015,-89.9782,0.0,6.904,40.0,,'11111222,11111222,99999999' 
WAVCIS,ioos:station:WAVCIS:CSI09:1,2011-10-03T10:00:00Z,29.1015,-89.9782,0.0,7.22,40.0,,'11111222,11111222,99999999' 
WAVCIS,ioos:station:WAVCIS:CSI09:1,2011-10-03T11:00:00Z,29.1015,-89.9782,0.0,7.59,43.0,,'11111222,11111222,99999999' 
WAVCIS,ioos:station:WAVCIS:CSI09:1,2011-10-03T12:00:00Z,29.1015,-89.9782,0.0,7.85,47.0,,'11111222,11111222,99999999' 
WAVCIS,ioos:station:WAVCIS:CSI09:1,2011-10-03T13:00:00Z,29.1015,-89.9782,0.0,7.32,41.0,,'11111222,11111222,99999999' 
WAVCIS,ioos:station:WAVCIS:CSI09:1,2011-10-03T14:00:00Z,29.1015,-89.9782,0.0,6.337,47.0,,'11111222,11111222,99999999' 
WAVCIS,ioos:station:WAVCIS:CSI09:1,2011-10-03T15:00:00Z,29.1015,-89.9782,0.0,7.16,55.0,,'11111222,11111222,99999999' 
WAVCIS,ioos:station:WAVCIS:CSI09:1,2011-10-03T16:00:00Z,29.1015,-89.9782,0.0,6.537,59.0,,'11111222,11111222,99999999' 
WAVCIS,ioos:station:WAVCIS:CSI09:1,2011-10-03T17:00:00Z,29.1015,-89.9782,0.0,5.891,66.0,,'11111222,11111222,99999999' 
WAVCIS,ioos:station:WAVCIS:CSI09:1,2011-10-03T18:00:00Z,29.1015,-89.9782,0.0,5.017,55.0,,'11111222,11111222,99999999' 
WAVCIS,ioos:station:WAVCIS:CSI09:1,2011-10-03T19:00:00Z,29.1015,-89.9782,0.0,4.742,56.0,,'11111222,11111222,99999999' 
WAVCIS,ioos:station:WAVCIS:CSI09:1,2011-10-03T20:00:00Z,29.1015,-89.9782,0.0,4.735,49.0,,'11111222,11111222,99999999' 
WAVCIS,ioos:station:WAVCIS:CSI09:1,2011-10-03T21:00:00Z,29.1015,-89.9782,0.0,4.304,45.0,,'11111222,11111222,99999999' 
WAVCIS,ioos:station:WAVCIS:CSI09:1,2011-10-03T22:00:00Z,29.1015,-89.9782,0.0,4.028,37.0,,'11111222,11111222,99999999' 
WAVCIS,ioos:station:WAVCIS:CSI09:1,2011-10-03T23:00:00Z,29.1015,-89.9782,0.0,5.645,26.0,,'11111222,11111222,99999999' 
WAVCIS,ioos:station:WAVCIS:CSI09:1,2011-10-04T00:00:00Z,29.1015,-89.9782,0.0,6.498,30.0,,'11111222,11111222,99999999' 
WAVCIS,ioos:station:WAVCIS:CSI09:1,2011-10-04T01:00:00Z,29.1015,-89.9782,0.0,6.543,34.0,,'11111222,11111222,99999999' 
WAVCIS,ioos:station:WAVCIS:CSI09:1,2011-10-04T02:00:00Z,29.1015,-89.9782,0.0,5.758,32.0,,'11111222,11111222,99999999' 
WAVCIS,ioos:station:WAVCIS:CSI09:1,2011-10-04T03:00:00Z,29.1015,-89.9782,0.0,6.088,36.0,,'11111222,11111222,99999999' 
WAVCIS,ioos:station:WAVCIS:CSI09:1,2011-10-04T04:00:00Z,29.1015,-89.9782,0.0,5.695,36.0,,'11111222,11111222,99999999' 
WAVCIS,ioos:station:WAVCIS:CSI09:1,2011-10-04T05:00:00Z,29.1015,-89.9782,0.0,6.137,50.0,,'11111222,11111222,99999999' 
WAVCIS,ioos:station:WAVCIS:CSI09:1,2011-10-04T06:00:00Z,29.1015,-89.9782,0.0,5.793,53.0,,'11111222,11111222,99999999' 
WAVCIS,ioos:station:WAVCIS:CSI09:1,2011-10-04T07:00:00Z,29.1015,-89.9782,0.0,5.38,43.0,,'11111222,11111222,99999999' 
WAVCIS,ioos:station:WAVCIS:CSI09:1,2011-10-04T08:00:00Z,29.1015,-89.9782,0.0,6.321,48.0,,'11111222,11111222,99999999' 
WAVCIS,ioos:station:WAVCIS:CSI09:1,2011-10-04T09:00:00Z,29.1015,-89.9782,0.0,5.648,48.0,,'11111222,11111222,99999999' 
WAVCIS,ioos:station:WAVCIS:CSI09:1,2011-10-04T10:00:00Z,29.1015,-89.9782,0.0,5.78,39.0,,'11111222,11111222,99999999' 
WAVCIS,ioos:station:WAVCIS:CSI09:1,2011-10-04T11:00:00Z,29.1015,-89.9782,0.0,5.648,33.0,,'11111222,11111222,99999999' 
WAVCIS,ioos:station:WAVCIS:CSI09:1,2011-10-04T12:00:00Z,29.1015,-89.9782,0.0,6.573,35.0,,'11111222,11111222,99999999' 
WAVCIS,ioos:station:WAVCIS:CSI09:1,2011-10-04T13:00:00Z,29.1015,-89.9782,0.0,6.496,28.0,,'11111222,11111222,99999999' 
WAVCIS,ioos:station:WAVCIS:CSI09:1,2011-10-04T14:00:00Z,29.1015,-89.9782,0.0,6.708,29.0,,'11111222,11111222,99999999' 
WAVCIS,ioos:station:WAVCIS:CSI09:1,2011-10-04T15:00:00Z,29.1015,-89.9782,0.0,7.3,32.0,,'11111222,11111222,99999999' 
WAVCIS,ioos:station:WAVCIS:CSI09:1,2011-10-04T16:00:00Z,29.1015,-89.9782,0.0,7.16,37.0,,'11111222,11111222,99999999' 
WAVCIS,ioos:station:WAVCIS:CSI09:1,2011-10-04T17:00:00Z,29.1015,-89.9782,0.0,6.734,35.0,,'11111222,11111222,99999999' 
WAVCIS,ioos:station:WAVCIS:CSI09:1,2011-10-04T18:00:00Z,29.1015,-89.9782,0.0,6.429,41.0,,'11111222,11111222,99999999' 
WAVCIS,ioos:station:WAVCIS:CSI09:1,2011-10-04T19:00:00Z,29.1015,-89.9782,0.0,6.462,34.0,,'11111222,11111222,99999999' 
WAVCIS,ioos:station:WAVCIS:CSI09:1,2011-10-04T20:00:00Z,29.1015,-89.9782,0.0,6.833,29.0,,'11111222,11111222,99999999' 
WAVCIS,ioos:station:WAVCIS:CSI09:1,2011-10-04T21:00:00Z,29.1015,-89.9782,0.0,6.596,41.0,,'11111222,11111222,99999999' 
WAVCIS,ioos:station:WAVCIS:CSI09:1,2011-10-04T22:00:00Z,29.1015,-89.9782,0.0,7.45,44.0,,'11111222,11111222,99999999' 
WAVCIS,ioos:station:WAVCIS:CSI09:1,2011-10-04T23:00:00Z,29.1015,-89.9782,0.0,8.04,46.0,,'11111222,11111222,99999999' 
WAVCIS,ioos:station:WAVCIS:CSI09:1,2011-10-05T00:00:00Z,29.1015,-89.9782,0.0,8.78,51.0,,'11111222,11111222,99999999' 
WAVCIS,ioos:station:WAVCIS:CSI09:1,2011-10-05T01:00:00Z,29.1015,-89.9782,0.0,8.27,57.0,,'11111222,11111222,99999999' 
WAVCIS,ioos:station:WAVCIS:CSI09:1,2011-10-05T02:00:00Z,29.1015,-89.9782,0.0,6.762,71.0,,'11111222,11111222,99999999' 
WAVCIS,ioos:station:WAVCIS:CSI09:1,2011-10-05T03:00:00Z,29.1015,-89.9782,0.0,5.547,75.0,,'11111222,11111222,99999999' 
WAVCIS,ioos:station:WAVCIS:CSI09:1,2011-10-05T04:00:00Z,29.1015,-89.9782,0.0,5.384,71.0,,'11111222,11111222,99999999' 
WAVCIS,ioos:station:WAVCIS:CSI09:1,2011-10-05T05:00:00Z,29.1015,-89.9782,0.0,5.74,70.0,,'11111222,11111222,99999999' 
WAVCIS,ioos:station:WAVCIS:CSI09:1,2011-10-05T06:00:00Z,29.1015,-89.9782,0.0,6.42,67.0,,'11111222,11111222,99999999' 
WAVCIS,ioos:station:WAVCIS:CSI09:1,2011-10-05T07:00:00Z,29.1015,-89.9782,0.0,6.094,56.0,,'11111222,11111222,99999999' 
WAVCIS,ioos:station:WAVCIS:CSI09:1,2011-10-05T08:00:00Z,29.1015,-89.9782,0.0,6.003,46.0,,'11111222,11111222,99999999' 
WAVCIS,ioos:station:WAVCIS:CSI09:1,2011-10-05T09:00:00Z,29.1015,-89.9782,0.0,6.365,37.0,,'11111222,11111222,99999999' 
WAVCIS,ioos:station:WAVCIS:CSI09:1,2011-10-05T10:00:00Z,29.1015,-89.9782,0.0,6.645,31.0,,'11111222,11111222,99999999' 
WAVCIS,ioos:station:WAVCIS:CSI09:1,2011-10-05T11:00:00Z,29.1015,-89.9782,0.0,7.17,32.0,,'11111222,11111222,99999999' 
WAVCIS,ioos:station:WAVCIS:CSI09:1,2011-10-05T12:00:00Z,29.1015,-89.9782,0.0,6.5,31.0,,'11111222,11111222,99999999' 
WAVCIS,ioos:station:WAVCIS:CSI09:1,2011-10-05T13:00:00Z,29.1015,-89.9782,0.0,7.07,37.0,,'11111222,11111222,99999999' 
WAVCIS,ioos:station:WAVCIS:CSI09:1,2011-10-05T14:00:00Z,29.1015,-89.9782,0.0,7.36,43.0,,'11111222,11111222,99999999' 
WAVCIS,ioos:station:WAVCIS:CSI09:1,2011-10-05T15:00:00Z,29.1015,-89.9782,0.0,8.35,45.0,,'11111222,11111222,99999999' 
WAVCIS,ioos:station:WAVCIS:CSI09:1,2011-10-05T16:00:00Z,29.1015,-89.9782,0.0,7.93,54.0,,'11111222,11111222,99999999' 
WAVCIS,ioos:station:WAVCIS:CSI09:1,2011-10-05T17:00:00Z,29.1015,-89.9782,0.0,7.31,53.0,,'11111222,11111222,99999999' 
WAVCIS,ioos:station:WAVCIS:CSI09:1,2011-10-05T18:00:00Z,29.1015,-89.9782,0.0,6.917,52.0,,'11111222,11111222,99999999' 
WAVCIS,ioos:station:WAVCIS:CSI09:1,2011-10-05T19:00:00Z,29.1015,-89.9782,0.0,6.544,59.0,,'11111222,11111222,99999999' 
WAVCIS,ioos:station:WAVCIS:CSI09:1,2011-10-05T20:00:00Z,29.1015,-89.9782,0.0,5.378,78.0,,'11111222,11111222,99999999' 
WAVCIS,ioos:station:WAVCIS:CSI09:1,2011-10-05T21:00:00Z,29.1015,-89.9782,0.0,5.331,72.0,,'11111222,11111222,99999999' 
WAVCIS,ioos:station:WAVCIS:CSI09:1,2011-10-05T22:00:00Z,29.1015,-89.9782,0.0,4.779,85.0,,'11111222,11111222,99999999' 
WAVCIS,ioos:station:WAVCIS:CSI09:1,2011-10-05T23:00:00Z,29.1015,-89.9782,0.0,4.699,83.0,,'11111222,11111222,99999999' 
WAVCIS,ioos:station:WAVCIS:CSI09:1,2011-10-06T00:00:00Z,29.1015,-89.9782,0.0,5.189,73.0,,'11111222,11111222,99999999' 
WAVCIS,ioos:station:WAVCIS:CSI09:1,2011-10-06T01:00:00Z,29.1015,-89.9782,0.0,6.718,64.0,,'11111222,11111222,99999999' 
WAVCIS,ioos:station:WAVCIS:CSI09:1,2011-10-06T02:00:00Z,29.1015,-89.9782,0.0,7.25,70.0,,'11111222,11111222,99999999' 
WAVCIS,ioos:station:WAVCIS:CSI09:1,2011-10-06T03:00:00Z,29.1015,-89.9782,0.0,9.8,83.0,,'11111222,11111222,99999999' 
WAVCIS,ioos:station:WAVCIS:CSI09:1,2011-10-06T04:00:00Z,29.1015,-89.9782,0.0,10.08,83.0,,'11111222,11111222,99999999' 
WAVCIS,ioos:station:WAVCIS:CSI09:1,2011-10-06T05:00:00Z,29.1015,-89.9782,0.0,9.67,85.0,,'11111222,11111222,99999999' 
WAVCIS,ioos:station:WAVCIS:CSI09:1,2011-10-06T06:00:00Z,29.1015,-89.9782,0.0,7.4,89.0,,'11111222,11111222,99999999' 
WAVCIS,ioos:station:WAVCIS:CSI09:1,2011-10-06T07:00:00Z,29.1015,-89.9782,0.0,7.93,87.0,,'11111222,11111222,99999999' 
WAVCIS,ioos:station:WAVCIS:CSI09:1,2011-10-06T08:00:00Z,29.1015,-89.9782,0.0,7.93,85.0,,'11111222,11111222,99999999' 
WAVCIS,ioos:station:WAVCIS:CSI09:1,2011-10-06T09:00:00Z,29.1015,-89.9782,0.0,6.905,92.0,,'11111222,11111222,99999999' 
WAVCIS,ioos:station:WAVCIS:CSI09:1,2011-10-06T10:00:00Z,29.1015,-89.9782,0.0,6.675,93.0,,'11111222,11111222,99999999' 
WAVCIS,ioos:station:WAVCIS:CSI09:1,2011-10-06T11:00:00Z,29.1015,-89.9782,0.0,6.312,95.0,,'11111222,11111222,99999999' 
WAVCIS,ioos:station:WAVCIS:CSI09:1,2011-10-06T12:00:00Z,29.1015,-89.9782,0.0,7.53,85.0,,'11111222,11111222,99999999' 
WAVCIS,ioos:station:WAVCIS:CSI09:1,2011-10-06T13:00:00Z,29.1015,-89.9782,0.0,7.19,78.0,,'11111222,11111222,99999999' 
WAVCIS,ioos:station:WAVCIS:CSI09:1,2011-10-06T14:00:00Z,29.1015,-89.9782,0.0,7.82,83.0,,'11111222,11111222,99999999' 
WAVCIS,ioos:station:WAVCIS:CSI09:1,2011-10-06T15:00:00Z,29.1015,-89.9782,0.0,5.501,91.0,,'11111222,11111222,99999999' 
WAVCIS,ioos:station:WAVCIS:CSI09:1,2011-10-06T16:00:00Z,29.1015,-89.9782,0.0,5.697,70.0,,'11111222,11111222,99999999' 
WAVCIS,ioos:station:WAVCIS:CSI09:1,2011-10-06T17:00:00Z,29.1015,-89.9782,0.0,5.741,63.0,,'11111222,11111222,99999999' 
WAVCIS,ioos:station:WAVCIS:CSI09:1,2011-10-06T18:00:00Z,29.1015,-89.9782,0.0,5.906,64.0,,'11111222,11111222,99999999' 
WAVCIS,ioos:station:WAVCIS:CSI09:1,2011-10-06T19:00:00Z,29.1015,-89.9782,0.0,7.05,60.0,,'11111222,11111222,99999999' 
WAVCIS,ioos:station:WAVCIS:CSI09:1,2011-10-06T20:00:00Z,29.1015,-89.9782,0.0,7.99,71.0,,'11111222,11111222,99999999' 
WAVCIS,ioos:station:WAVCIS:CSI09:1,2011-10-06T21:00:00Z,29.1015,-89.9782,0.0,10.23,86.0,,'11111222,11111222,99999999' 
WAVCIS,ioos:station:WAVCIS:CSI09:1,2011-10-06T22:00:00Z,29.1015,-89.9782,0.0,8.88,84.0,,'11111222,11111222,99999999' 
WAVCIS,ioos:station:WAVCIS:CSI09:1,2011-10-06T23:00:00Z,29.1015,-89.9782,0.0,5.594,84.0,,'11111222,11111222,99999999' 
WAVCIS,ioos:station:WAVCIS:CSI09:1,2011-10-07T00:00:00Z,29.1015,-89.9782,0.0,10.49,75.0,,'11111222,11111222,99999999' 
WAVCIS,ioos:station:WAVCIS:CSI09:1,2011-10-07T01:00:00Z,29.1015,-89.9782,0.0,9.84,74.0,,'11111222,11111222,99999999' 
WAVCIS,ioos:station:WAVCIS:CSI09:1,2011-10-07T02:00:00Z,29.1015,-89.9782,0.0,9.16,75.0,,'11111222,11111222,99999999' 
WAVCIS,ioos:station:WAVCIS:CSI09:1,2011-10-07T03:00:00Z,29.1015,-89.9782,0.0,9.4,73.0,,'11111222,11111222,99999999' 
WAVCIS,ioos:station:WAVCIS:CSI09:1,2011-10-07T04:00:00Z,29.1015,-89.9782,0.0,8.46,71.0,,'11111222,11111222,99999999' 
WAVCIS,ioos:station:WAVCIS:CSI09:1,2011-10-07T05:00:00Z,29.1015,-89.9782,0.0,7.9,79.0,,'11111222,11111222,99999999' 
WAVCIS,ioos:station:WAVCIS:CSI09:1,2011-10-07T06:00:00Z,29.1015,-89.9782,0.0,6.789,82.0,,'11111222,11111222,99999999' 
WAVCIS,ioos:station:WAVCIS:CSI09:1,2011-10-07T07:00:00Z,29.1015,-89.9782,0.0,6.88,83.0,,'11111222,11111222,99999999' 
WAVCIS,ioos:station:WAVCIS:CSI09:1,2011-10-07T08:00:00Z,29.1015,-89.9782,0.0,7.31,70.0,,'11111222,11111222,99999999' 
WAVCIS,ioos:station:WAVCIS:CSI09:1,2011-10-07T09:00:00Z,29.1015,-89.9782,0.0,7.89,80.0,,'11111222,11111222,99999999' 
WAVCIS,ioos:station:WAVCIS:CSI09:1,2011-10-07T10:00:00Z,29.1015,-89.9782,0.0,8.16,88.0,,'11111222,11111222,99999999' 
WAVCIS,ioos:station:WAVCIS:CSI09:1,2011-10-07T11:00:00Z,29.1015,-89.9782,0.0,6.832,89.0,,'11111222,11111222,99999999' 
WAVCIS,ioos:station:WAVCIS:CSI09:1,2011-10-07T12:00:00Z,29.1015,-89.9782,0.0,6.43,84.0,,'11111222,11111222,99999999' 
WAVCIS,ioos:station:WAVCIS:CSI09:1,2011-10-07T13:00:00Z,29.1015,-89.9782,0.0,7.08,68.0,,'11111222,11111222,99999999' 
WAVCIS,ioos:station:WAVCIS:CSI09:1,2011-10-07T14:00:00Z,29.1015,-89.9782,0.0,8.54,69.0,,'11111222,11111222,99999999' 
WAVCIS,ioos:station:WAVCIS:CSI09:1,2011-10-07T15:00:00Z,29.1015,-89.9782,0.0,8.71,68.0,,'11111222,11111222,99999999' 
WAVCIS,ioos:station:WAVCIS:CSI09:1,2011-10-07T16:00:00Z,29.1015,-89.9782,0.0,7.47,83.0,,'11111222,11111222,99999999' 
WAVCIS,ioos:station:WAVCIS:CSI09:1,2011-10-07T17:00:00Z,29.1015,-89.9782,0.0,5.135,68.0,,'11111222,11111222,99999999' 
WAVCIS,ioos:station:WAVCIS:CSI09:1,2011-10-07T18:00:00Z,29.1015,-89.9782,0.0,8.61,81.0,,'11111222,11111222,99999999' 
WAVCIS,ioos:station:WAVCIS:CSI09:1,2011-10-07T19:00:00Z,29.1015,-89.9782,0.0,8.02,70.0,,'11111222,11111222,99999999' 
WAVCIS,ioos:station:WAVCIS:CSI09:1,2011-10-07T20:00:00Z,29.1015,-89.9782,0.0,8.9,75.0,,'11111222,11111222,99999999' 
WAVCIS,ioos:station:WAVCIS:CSI09:1,2011-10-07T21:00:00Z,29.1015,-89.9782,0.0,11.44,76.0,,'11111222,11111222,99999999' 
WAVCIS,ioos:station:WAVCIS:CSI09:1,2011-10-07T22:00:00Z,29.1015,-89.9782,0.0,11.05,73.0,,'11111222,11111222,99999999' 
WAVCIS,ioos:station:WAVCIS:CSI09:1,2011-10-07T23:00:00Z,29.1015,-89.9782,0.0,10.57,74.0,,'11111222,11111222,99999999' 
WAVCIS,ioos:station:WAVCIS:CSI09:1,2011-10-08T00:00:00Z,29.1015,-89.9782,0.0,11.44,74.0,,'11111222,11111222,99999999' 
WAVCIS,ioos:station:WAVCIS:CSI09:1,2011-10-08T01:00:00Z,29.1015,-89.9782,0.0,11.5,73.0,,'11111222,11111222,99999999' 
WAVCIS,ioos:station:WAVCIS:CSI09:1,2011-10-08T02:00:00Z,29.1015,-89.9782,0.0,11.83,75.0,,'11111222,11111222,99999999' 
WAVCIS,ioos:station:WAVCIS:CSI09:1,2011-10-08T03:00:00Z,29.1015,-89.9782,0.0,10.42,75.0,,'11111222,11111222,99999999' 
WAVCIS,ioos:station:WAVCIS:CSI09:1,2011-10-08T04:00:00Z,29.1015,-89.9782,0.0,10.86,78.0,,'11111222,11111222,99999999' 
WAVCIS,ioos:station:WAVCIS:CSI09:1,2011-10-08T05:00:00Z,29.1015,-89.9782,0.0,10.57,80.0,,'11111222,11111222,99999999' 
WAVCIS,ioos:station:WAVCIS:CSI09:1,2011-10-08T06:00:00Z,29.1015,-89.9782,0.0,8.73,80.0,,'11111222,11111222,99999999' 
WAVCIS,ioos:station:WAVCIS:CSI09:1,2011-10-08T07:00:00Z,29.1015,-89.9782,0.0,7.95,79.0,,'11111222,11111222,99999999' 
WAVCIS,ioos:station:WAVCIS:CSI09:1,2011-10-08T08:00:00Z,29.1015,-89.9782,0.0,9.69,69.0,,'11111222,11111222,99999999' 
WAVCIS,ioos:station:WAVCIS:CSI09:1,2011-10-08T09:00:00Z,29.1015,-89.9782,0.0,8.94,58.0,,'11111222,11111222,99999999' 
WAVCIS,ioos:station:WAVCIS:CSI09:1,2011-10-08T10:00:00Z,29.1015,-89.9782,0.0,9.37,58.0,,'11111222,11111222,99999999' 
WAVCIS,ioos:station:WAVCIS:CSI09:1,2011-10-08T11:00:00Z,29.1015,-89.9782,0.0,10.51,65.0,,'11111222,11111222,99999999' 
WAVCIS,ioos:station:WAVCIS:CSI09:1,2011-10-08T12:00:00Z,29.1015,-89.9782,0.0,9.85,78.0,,'11111222,11111222,99999999' 
WAVCIS,ioos:station:WAVCIS:CSI09:1,2011-10-08T13:00:00Z,29.1015,-89.9782,0.0,8.49,81.0,,'11111222,11111222,99999999' 
WAVCIS,ioos:station:WAVCIS:CSI09:1,2011-10-08T14:00:00Z,29.1015,-89.9782,0.0,10.1,81.0,,'11111222,11111222,99999999' 
WAVCIS,ioos:station:WAVCIS:CSI09:1,2011-10-08T15:00:00Z,29.1015,-89.9782,0.0,8.71,91.0,,'11111222,11111222,99999999' 
WAVCIS,ioos:station:WAVCIS:CSI09:1,2011-10-08T16:00:00Z,29.1015,-89.9782,0.0,10.4,77.0,,'11111222,11111222,99999999' 
WAVCIS,ioos:station:WAVCIS:CSI09:1,2011-10-08T17:00:00Z,29.1015,-89.9782,0.0,11.25,74.0,,'11111222,11111222,99999999' 
WAVCIS,ioos:station:WAVCIS:CSI09:1,2011-10-08T18:00:00Z,29.1015,-89.9782,0.0,11.6,71.0,,'11111222,11111222,99999999' 
WAVCIS,ioos:station:WAVCIS:CSI09:1,2011-10-08T19:00:00Z,29.1015,-89.9782,0.0,10.78,72.0,,'11111222,11111222,99999999' 
WAVCIS,ioos:station:WAVCIS:CSI09:1,2011-10-08T20:00:00Z,29.1015,-89.9782,0.0,12.15,70.0,,'11111222,11111222,99999999' 
WAVCIS,ioos:station:WAVCIS:CSI09:1,2011-10-08T21:00:00Z,29.1015,-89.9782,0.0,12.96,72.0,,'11111222,11111222,99999999' 
WAVCIS,ioos:station:WAVCIS:CSI09:1,2011-10-08T22:00:00Z,29.1015,-89.9782,0.0,12.04,71.0,,'11111222,11111222,99999999' 
WAVCIS,ioos:station:WAVCIS:CSI09:1,2011-10-08T23:00:00Z,29.1015,-89.9782,0.0,13.21,73.0,,'11111222,11111222,99999999' 
WAVCIS,ioos:station:WAVCIS:CSI09:1,2011-10-09T00:00:00Z,29.1015,-89.9782,0.0,12.26,74.0,,'11111222,11111222,99999999' 
WAVCIS,ioos:station:WAVCIS:CSI09:1,2011-10-09T01:00:00Z,29.1015,-89.9782,0.0,13.09,77.0,,'11111222,11111222,99999999' 
WAVCIS,ioos:station:WAVCIS:CSI09:1,2011-10-09T02:00:00Z,29.1015,-89.9782,0.0,12.28,81.0,,'11111222,11111222,99999999' 
WAVCIS,ioos:station:WAVCIS:CSI09:1,2011-10-09T03:00:00Z,29.1015,-89.9782,0.0,12.28,85.0,,'11111222,11111222,99999999' 
WAVCIS,ioos:station:WAVCIS:CSI09:1,2011-10-09T04:00:00Z,29.1015,-89.9782,0.0,11.58,84.0,,'11111222,11111222,99999999' 
WAVCIS,ioos:station:WAVCIS:CSI09:1,2011-10-09T05:00:00Z,29.1015,-89.9782,0.0,13.37,84.0,,'11111222,11111222,99999999' 
WAVCIS,ioos:station:WAVCIS:CSI09:1,2011-10-09T06:00:00Z,29.1015,-89.9782,0.0,11.45,87.0,,'11111222,11111222,99999999' 
WAVCIS,ioos:station:WAVCIS:CSI09:1,2011-10-09T07:00:00Z,29.1015,-89.9782,0.0,12.68,83.0,,'11111222,11111222,99999999' 
WAVCIS,ioos:station:WAVCIS:CSI09:1,2011-10-09T08:00:00Z,29.1015,-89.9782,0.0,12.41,82.0,,'11111222,11111222,99999999' 